Regional Weather Roundup
Issued by NWS

Home | Current Version | Previous Version | Graphics & Text | Print | Product List | Glossary On
Versions: 1 2 3 4 5 6 7 8 9 10 11 12 13 14 15 16 17 18 19 20 21 22 23 24 25 26 27 28 29 30 31 32 33 34 35 36 37 38 39 40 41 42 43 44 45 46 47 48 49 50
000
ASUS43 KDTX 250101
RWRMI
MICHIGAN HOURLY REGIONAL WEATHER ROUNDUP
NATIONAL WEATHER SERVICE DETROIT/PONTIAC MI
800 PM EST SAT FEB 24 2018

NOTE: "FAIR" INDICATES FEW OR NO CLOUDS BELOW 12,000 FEET WITH NO
SIGNIFICANT WEATHER AND/OR OBSTRUCTION TO VISIBILITY.

MIZ047>049-052>055-059>063-066>070-074>076-081>083-250200-
SOUTHEAST LOWER MICHIGAN

CITY           SKY/WX    TMP DP  RH WIND       PRES   REMARKS
ADRIAN         CLOUDY    36  30  79 SE15G24   29.98F WCI  27
ALMA           CLOUDY    34  32  92 E13       29.97F WCI  25
ANN ARBOR      CLOUDY    38  32  79 E14       29.97F WCI  30
BAD AXE        CLOUDY    30  27  86 E3        30.07F
CARO           FAIR      32  28  84 E6        30.02F WCI  26
DETROIT CITY   CLOUDY    37  30  75 E13       30.02F WCI  29
DETROIT        CLOUDY    38  31  76 E12       30.01F WCI  30
FLINT          CLOUDY    35  30  82 E10       30.01F WCI  27
GROSSE ILE     CLOUDY    37  32  81 MISG      30.00F
HILLSDALE      CLOUDY    34  30  86 E17       29.91F WCI  23
HOWELL         CLOUDY    37  33  85 E13G18    29.96F WCI  28

CITY           SKY/WX    TMP DP  RH WIND       PRES   REMARKS
JACKSON        CLOUDY    38  33  82 E15G25    29.93F WCI  29
LAMBERTVILLE   CLOUDY    36  31  85 E9        29.98F WCI  29
LANSING        CLOUDY    37  32  82 E14       29.94F WCI  28
LAPEER         CLOUDY    33  29  86 E7        30.02F WCI  27
MASON          CLOUDY    38  31  76 E10G16    29.94F WCI  31
MONROE         CLOUDY    36  30  78 E16G23    29.99F WCI  27
MT. CLEMENS    CLOUDY    35  35 100 E7        30.02F WCI  29
PONTIAC        CLOUDY    35  31  85 E12       29.98F WCI  27
PORT HOPE        N/A     32  28  85 E15       30.05F WCI  22
PORT HURON     FAIR      32  28  86 NE3       30.04F
TRI CITIES     CLOUDY    33  27  78 E13       30.03F WCI  24
MIDLAND        MOCLDY    32  28  85 E13G18    30.02F WCI  23
TROY           MOCLDY    37  33  82 E10G16    30.03F WCI  30
SAGINAW HB     CLOUDY    32  30  93 E10       30.03S WCI  24
$$
MIZ043>046-050>051-056>058-064>065-071>073-077>080-250200-
SOUTHWEST LOWER MICHIGAN

CITY           SKY/WX    TMP DP  RH WIND       PRES   REMARKS
BATTLE CREEK   CLOUDY    38  34  85 E13G23    29.89F WCI  30
BENTON HARBOR  CLOUDY    41  35  79 E22       29.80F
BIG RAPIDS     CLOUDY    32  27  80 E17G24    29.92F WCI  21
COLDWATER      CLOUDY    37  33  85 E14G22    29.89F WCI  29
FREMONT        CLOUDY    35  26  69 E12G23    29.86F WCI  27
HOLLAND        MOCLDY    41  33  73 E17G25    29.84F
GRAND RAPIDS   CLOUDY    38  32  79 E16       29.88F WCI  29
IONIA          CLOUDY    37  32  82 E10       29.91F WCI  29
KALAMAZOO      CLOUDY    40  34  79 SE16G24   29.88F WCI  31
LUDINGTON      CLOUDY    35  30  81 E18G26    29.83F WCI  24
MARSHALL       CLOUDY    37  35  93 E12G21    29.90F WCI  29
MOUNT PLEASANT CLOUDY    33  28  80 E12       29.98F WCI  24
MUSKEGON       CLOUDY    39  30  70 E20G29    29.82F WCI  29
SOUTH HAVEN    CLOUDY    42  36  78 SE16G22   29.82F
$$
MIZ016>042-250200-
NORTHERN LOWER MICHIGAN

CITY           SKY/WX    TMP DP  RH WIND       PRES   REMARKS
ALPENA         MOCLDY    31  25  78 E12       30.06F WCI  22
BEAVER ISLAND  CLOUDY    32  25  76 E14G23    29.97F WCI  22
BELLAIRE       CLOUDY    36  28  72 SE13G18   29.97F WCI  28
CADILLAC       CLOUDY    30  27  87 E17       29.91F WCI  18
CHARLEVOIX     CLOUDY    35  25  67 E15       29.99F WCI  26
FRANKFORT      CLOUDY    38  27  62 SE15      29.88F WCI  30
GAYLORD        CLOUDY    30  24  78 SE16G23   29.97F WCI  19
GRAYLING       CLOUDY    30  24  78 E14       29.97F WCI  19
HARBOR SPRINGS CLOUDY    32  24  71 E15G24    30.01R WCI  22
HOUGHTON LAKE  CLOUDY    29  24  82 E12       29.98F WCI  19
MANISTEE       CLOUDY    35  27  72 E15G25    29.85F WCI  25
OSCODA         CLOUDY    31  23  72 E7        30.06F WCI  24
PELLSTON       MOCLDY    31  24  75 E13       30.02F WCI  21
ROGERS CITY    FAIR      30  25  80 SE9       30.07F WCI  22
TRAVERSE CITY  CLOUDY    36  25  64 E8        29.92F WCI  30
$$
MIZ007>008-015-250200-
EASTERN UPPER MICHIGAN

CITY           SKY/WX    TMP DP  RH WIND       PRES   REMARKS
KINROSS        FAIR      28  22  78 SE14      30.03F WCI  17
MACKINAC ISLAN FAIR      30  25  79 E12G22    30.03F WCI  21
NEWBERRY       MOCLDY    29  21  73 E12       29.98F WCI  19
S. S. MARIE    FAIR      30  21  69 SE7       30.04F WCI  23
MUNISING         N/A     33  22  63 VRB7      29.94F WCI  27
$$
MIZ004>006-011>014-085-250200-
CENTRAL UPPER MICHIGAN

CITY           SKY/WX    TMP DP  RH WIND       PRES   REMARKS
MANISTIQUE     CLOUDY    31  23  72 E14G23    29.95F WCI  20
ESCANABA       CLOUDY    31  24  75 E12       29.89F WCI  22
MENOMINEE      CLOUDY    31  27  85 E15G21    29.85F WCI  20
SAWYER-GWINN   CLOUDY    30  18  59 E13       29.91F WCI  20
$$
MIZ001>003-009>011-084-250200-
WESTERN UPPER MICHIGAN

CITY           SKY/WX    TMP DP  RH WIND       PRES   REMARKS
IRON MOUNTAIN  CLOUDY    30  21  69 E8        29.82F WCI  22
HOUGHTON       CLOUDY    29  23  78 E14       29.87F WCI  18
COPPER HARBOR    N/A     30  23  75 S10G22    29.93F WCI  21
IRONWOOD       FLURRIES  32  21  64 E15       29.72F WCI  22
$$

ABBREVIATIONS USED IN REMARKS
   TC - TEMPERATURE IN CELSIUS
  WCI - WIND CHILL INDEX
   HX - HEAT INDEX
  VSB - VISIBILITY




USA.gov is the U.S. government's official web portal to all federal, state and local government web resources and services.